Dewpoint
22 23 24 25 26 27 28 26 23 17 16 19 21 22 21 21 21 22 21 25 26 26 27 29 30 31 33 34 35 36 38 39 40 41 43 46 49 55
22 23 24 25 25 23 24 25 25 21 19 21 21 20 20 18 20 20 20 25 24 24 25 27 28 30 30 31 32 33 35 37 38 39 41 42 47 51
22 23 23 21 20 22 23 24 22 23 21 19 19 19 18 19 18 19 21 19 19 22 24 25 26 27 28 29 30 31 33 35 36 36 38 41 43 46
20 21 21 16 19 20 22 21 23 20 18 17 17 18 18 17 17 17 18 15 16 21 23 24 25 26 27 28 29 30 30 32 32 33 34 37 41 43
20 21 18 18 18 20 21 21 19 16 18 18 16 17 16 16 15 18 14 16 15 21 21 22 23 25 26 26 26 27 28 30 32 33 34 35 36 37
19 19 18 17 20 21 18 18 17 19 20 15 14 13 14 14 16 13 13 15 15 15 18 19 22 24 23 24 25 26 28 28 30 32 33 34 35 37
19 17 17 19 19 19 20 21 22 19 16 14 13 13 13 15 12 13 14 14 16 16 17 20 18 18 20 23 23 25 26 27 29 30 33 34 34 35
17 19 17 17 19 18 20 22 19 18 16 14 13 13 13 12 13 15 15 15 12 17 16 14 17 18 19 20 22 23 25 26 28 30 32 33 34 34
18 18 16 17 19 18 19 20 17 16 16 16 15 15 14 14 17 16 15 14 14 15 14 14 17 16 18 16 22 24 25 26 27 28 31 31 32 33
19 17 17 16 17 19 19 13 14 15 15 19 16 15 16 17 17 17 16 15 14 14 15 12 15 15 19 20 21 23 24 26 28 31 33 34 34 35
14 17 18 16 16 17 16 13 12 13 18 14 13 15 15 15 15 15 11 10 8 10 13 12 15 15 16 18 21 23 25 26 25 29 31 32 33 33
15 14 15 15 14 14 15 13 10 14 10 10 11 12 13 13 13 13 13 8 8 7 11 11 12 13 12 17 22 21 22 23 24 25 27 30 32 36
16 14 12 13 13 13 13 12 13 14 9 9 9 10 10 11 10 11 11 11 8 8 11 13 12 12 13 14 16 19 21 23 26 27 27 30 32 33
15 14 13 12 11 11 12 12 12 11 9 7 7 6 7 8 8 9 10 10 12 12 13 15 12 13 13 12 12 17 20 22 24 25 28 29 32 35
13 11 8 8 8 10 9 10 9 10 8 4 5 5 7 9 7 7 8 9 10 11 14 15 15 15 15 12 13 15 16 20 23 24 26 29 32 34
9 9 7 12 7 6 7 8 7 8 7 5 4 6 8 5 4 6 5 5 6 6 10 13 15 15 13 13 14 15 17 17 22 24 27 30 32 33
4 4 5 4 4 4 4 4 5 5 6 4 4 4 4 3 3 4 3 4 3 4 6 8 11 13 14 15 14 15 17 20 23 25 29 30 30 33
7 4 0 -3 -1 2 2 3 3 3 4 3 3 3 2 1 1 1 2 2 2 3 5 7 9 10 10 12 15 18 20 20 22 25 28 25 28 32
5 2 -5 -7 -4 1 1 1 1 3 4 2 2 2 1 -0 -1 -1 -0 0 0 2 4 7 8 8 6 3 10 13 19 18 18 21 24 28 28 32
2 1 -2 -2 -1 0 -0 -0 -1 1 -0 -0 -0 1 -1 -1 -3 -3 -2 -2 -1 0 2 4 7 8 6 5 7 11 16 21 23 24 29 29 31 33
-0 -1 -4 -2 -2 -3 -4 -6 -4 -2 -3 -3 -2 -1 -3 -4 -5 -4 -3 -3 -2 -0 0 2 6 11 12 13 11 12 17 21 25 28 29 27 30 33
-5 -3 -2 -5 -8 -8 -10 -8 -6 -5 -5 -4 -3 -3 -5 -5 -7 -6 -4 -3 -3 -1 1 4 6 8 9 10 9 13 17 23 27 31 31 29 32 32
-3 -5 -8 -8 -10 -11 -11 -8 -8 -8 -7 -5 -5 -6 -8 -9 -8 -5 -4 -4 -3 -1 1 2 3 5 7 10 11 14 18 22 26 28 30 30 31 32
Lifted_Index
18 18 18 19 20 20 19 18 15 12 11 13 15 17 18 19 19 19 18 18 18 18 18 17 17 16 16 16 15 14 12 12 11 10 8 6 4 3
18 18 18 19 19 19 19 18 16 13 12 14 16 18 19 19 19 19 19 18 18 18 18 17 17 16 16 16 16 15 13 12 12 11 10 8 5 4
18 18 18 19 19 18 18 17 17 15 14 14 17 18 19 19 19 19 19 19 19 18 18 17 17 16 16 16 16 16 15 13 12 12 11 10 7 6
18 18 18 18 18 17 17 17 17 16 15 15 16 18 18 19 19 19 19 19 19 18 18 18 17 17 16 16 16 16 15 14 13 12 12 11 10 8
18 18 18 18 17 17 17 17 17 17 16 15 16 17 18 18 18 18 18 18 19 18 18 18 17 17 16 16 16 16 16 15 15 14 13 12 11 11
19 19 19 18 18 18 18 18 17 17 16 16 15 16 16 17 17 16 16 17 18 18 18 18 18 17 17 16 16 16 16 16 16 15 14 13 12 11
19 19 19 19 19 19 18 18 18 17 16 15 15 15 15 16 16 16 16 16 16 17 17 17 17 17 17 16 16 16 16 16 16 16 15 14 13 12
19 19 19 19 19 19 19 18 18 17 16 15 15 15 15 16 16 16 16 15 15 16 16 16 16 17 17 17 16 16 16 16 16 16 15 14 13 13
19 19 19 19 19 19 19 18 18 17 17 16 16 15 16 16 17 16 16 16 16 16 16 16 16 16 17 17 17 16 15 15 16 16 16 15 14 13
19 19 19 19 19 19 18 18 17 17 17 17 17 16 17 17 18 17 17 17 16 16 16 16 16 16 17 17 17 16 16 15 15 16 16 15 14 14
19 19 19 19 19 19 18 17 17 17 17 17 17 17 17 17 18 18 18 17 16 15 16 17 17 17 16 16 17 17 16 16 15 16 16 15 14 14
19 19 19 19 19 19 18 17 16 17 17 17 17 16 16 17 18 18 18 17 16 15 16 17 18 17 17 16 17 17 17 16 15 15 15 15 14 14
18 18 19 19 19 18 18 17 17 17 17 17 16 16 16 16 17 18 18 18 17 16 17 18 18 18 17 16 16 16 17 16 15 14 14 14 13 13
18 18 19 19 18 18 18 18 18 18 17 17 16 16 16 17 17 18 18 18 17 17 17 18 18 19 18 17 15 15 15 15 15 14 13 13 12 12
18 19 19 19 18 18 17 18 18 18 17 17 16 17 17 17 17 17 17 17 16 16 16 17 19 19 19 17 15 14 14 14 14 13 12 12 11 11
19 19 18 18 17 17 17 17 18 18 17 17 17 17 18 18 17 17 16 15 14 13 14 16 18 19 18 17 15 14 13 13 13 13 12 12 11 10
18 18 17 16 16 16 16 17 18 18 18 18 18 18 18 17 17 16 16 15 14 12 13 14 17 18 18 17 15 14 13 13 13 13 13 11 10 9
17 16 16 16 16 16 16 17 18 18 19 19 18 18 18 17 16 16 16 15 14 13 13 14 15 16 16 15 15 14 13 13 13 13 13 11 9 9
16 15 15 16 16 16 17 17 18 19 19 19 19 18 18 17 16 16 15 15 14 14 14 14 15 16 15 14 14 14 14 13 13 13 12 11 10 9
16 15 16 16 17 17 18 18 18 19 19 19 19 19 18 18 16 16 16 16 15 14 14 15 16 17 16 15 13 13 14 14 13 13 12 12 10 9
16 16 16 17 17 18 18 19 19 19 19 19 19 19 19 18 17 16 16 16 16 15 15 16 17 18 17 16 14 13 13 14 14 14 13 12 10 8
16 17 17 18 18 19 19 19 19 19 19 19 19 19 19 18 18 17 17 17 17 17 16 17 18 18 17 16 14 13 13 14 15 15 14 13 11 9
17 17 18 18 19 19 19 19 18 18 19 19 19 19 19 18 18 18 18 18 18 17 17 17 18 18 17 16 15 14 13 14 15 15 15 14 13 11